| time (UTC) | temp C | wind direction | speed KPH | gust KPH | rain 1hr cm | rain 24hr cm | rain mn cm | humidity % | barometer mb |
| 20260507023040 | 11 | 0 | 0.0 | 0.0 | 0.00 | 0.00 | 0.00 | 35 | 1014.7 |
| 20260507021546 | 11 | 0 | 0.0 | 0.0 | 0.00 | 0.00 | 0.00 | 34 | 1014.6 |
| 20260507020044 | 11 | 0 | 0.0 | 0.0 | 0.00 | 0.00 | 0.00 | 33 | 1014.6 |
| 20260507014551 | 12 | 0 | 0.0 | 0.0 | 0.00 | 0.00 | 0.00 | 32 | 1014.6 |
| 20260507013040 | 12 | 0 | 0.0 | 1.6 | 0.00 | 0.00 | 0.00 | 30 | 1014.6 |
| 20260507011542 | 12 | 262 | 0.0 | 1.6 | 0.00 | 0.00 | 0.00 | 30 | 1014.6 |
| 20260507010037 | 13 | 304 | 0.0 | 9.7 | 0.00 | 0.00 | 0.00 | 28 | 1014.6 |
| 20260507004546 | 13 | 311 | 3.2 | 11.3 | 0.00 | 0.00 | 0.00 | 27 | 1014.5 |
| 20260507003041 | 13 | 281 | 1.6 | 6.4 | 0.00 | 0.00 | 0.00 | 27 | 1014.6 |
| 20260507001548 | 14 | 293 | 1.6 | 12.9 | 0.00 | 0.00 | 0.00 | 27 | 1014.7 |
| 20260507000041 | 13 | 296 | 1.6 | 9.7 | 0.00 | 0.00 | 0.00 | 26 | 1014.8 |
| 20260506234535 | 13 | 262 | 1.6 | 16.1 | 0.00 | 0.00 | 0.00 | 27 | 1014.9 |
| 20260506233052 | 13 | 307 | 3.2 | 8.0 | 0.00 | 0.00 | 0.00 | 26 | 1015.0 |
| 20260506231543 | 13 | 325 | 1.6 | 8.0 | 0.00 | 0.00 | 0.00 | 27 | 1015.2 |
| 20260506230045 | 14 | 310 | 1.6 | 3.2 | 0.00 | 0.00 | 0.00 | 27 | 1015.3 |
| 20260506224542 | 13 | 283 | 3.2 | 14.5 | 0.00 | 0.00 | 0.00 | 28 | 1015.3 |
| 20260506223036 | 14 | 296 | 3.2 | 12.9 | 0.00 | 0.00 | 0.00 | 27 | 1015.5 |
| 20260506221535 | 14 | 284 | 3.2 | 12.9 | 0.00 | 0.00 | 0.00 | 26 | 1015.7 |
| 20260506220049 | 15 | 269 | 4.8 | 16.1 | 0.00 | 0.00 | 0.00 | 26 | 1015.8 |
| 20260506214550 | 14 | 244 | 6.4 | 19.3 | 0.00 | 0.00 | 0.00 | 26 | 1015.9 |
| 20260506213041 | 14 | 335 | 1.6 | 14.5 | 0.00 | 0.00 | 0.00 | 28 | 1016.0 |
| 20260506211542 | 13 | 333 | 4.8 | 16.1 | 0.00 | 0.00 | 0.00 | 28 | 1016.1 |
| 20260506210041 | 14 | 300 | 3.2 | 9.7 | 0.00 | 0.00 | 0.00 | 28 | 1016.3 |
| 20260506204550 | 13 | 271 | 4.8 | 17.7 | 0.00 | 0.00 | 0.00 | 30 | 1016.6 |
| 20260506203046 | 13 | 259 | 4.8 | 16.1 | 0.00 | 0.00 | 0.00 | 27 | 1016.6 |
| 20260506201541 | 13 | 356 | 1.6 | 8.0 | 0.00 | 0.00 | 0.00 | 30 | 1016.7 |
| 20260506200048 | 13 | 323 | 3.2 | 8.0 | 0.00 | 0.00 | 0.00 | 29 | 1017.0 |
| 20260506194536 | 13 | 304 | 3.2 | 6.4 | 0.00 | 0.00 | 0.00 | 30 | 1017.1 |
| 20260506193035 | 13 | 311 | 4.8 | 14.5 | 0.00 | 0.00 | 0.00 | 32 | 1017.2 |
| 20260506191548 | 13 | 290 | 3.2 | 11.3 | 0.00 | 0.00 | 0.00 | 30 | 1017.3 |
| 20260506190043 | 12 | 37 | 1.6 | 12.9 | 0.00 | 0.00 | 0.00 | 33 | 1017.5 |
| 20260506184540 | 12 | 345 | 1.6 | 16.1 | 0.00 | 0.00 | 0.00 | 32 | 1017.6 |
| 20260506183035 | 11 | 0 | 1.6 | 11.3 | 0.00 | 0.00 | 0.00 | 33 | 1017.7 |
| 20260506181555 | 11 | 91 | 3.2 | 9.7 | 0.00 | 0.00 | 0.00 | 32 | 1018.1 |
| 20260506180104 | 11 | 240 | 3.2 | 8.0 | 0.00 | 0.00 | 0.00 | 32 | 1018.1 |
| 20260506174541 | 11 | 355 | 4.8 | 17.7 | 0.00 | 0.00 | 0.00 | 31 | 1018.3 |
| 20260506173045 | 12 | 335 | 3.2 | 8.0 | 0.00 | 0.00 | 0.00 | 32 | 1018.4 |
| 20260506171535 | 11 | 265 | 4.8 | 22.5 | 0.00 | 0.00 | 0.00 | 32 | 1018.4 |
| 20260506170046 | 11 | 274 | 1.6 | 11.3 | 0.00 | 0.00 | 0.00 | 34 | 1018.4 |
| 20260506164544 | 11 | 227 | 3.2 | 8.0 | 0.00 | 0.00 | 0.00 | 32 | 1018.5 |
| 20260506163044 | 11 | 307 | 1.6 | 8.0 | 0.00 | 0.00 | 0.00 | 36 | 1018.6 |
| 20260506161536 | 10 | 27 | 3.2 | 6.4 | 0.00 | 0.00 | 0.00 | 38 | 1018.7 |
| 20260506160037 | 10 | 310 | 1.6 | 6.4 | 0.00 | 0.00 | 0.00 | 40 | 1018.5 |
| 20260506154549 | 10 | 289 | 1.6 | 4.8 | 0.00 | 0.00 | 0.00 | 41 | 1018.4 |
| 20260506153040 | 10 | 340 | 1.6 | 6.4 | 0.00 | 0.00 | 0.00 | 41 | 1018.7 |
| 20260506151541 | 9 | 291 | 1.6 | 6.4 | 0.00 | 0.00 | 0.00 | 43 | 1018.7 |
| 20260506150040 | 8 | 267 | 1.6 | 8.0 | 0.00 | 0.00 | 0.00 | 47 | 1018.6 |
| 20260506144600 | 7 | 0 | 0.0 | 6.4 | 0.00 | 0.00 | 0.00 | 51 | 1018.6 |
| 20260506143043 | 7 | 305 | 0.0 | 4.8 | 0.00 | 0.00 | 0.00 | 51 | 1018.7 |
| 20260506141541 | 6 | 311 | 0.0 | 3.2 | 0.00 | 0.00 | 0.00 | 52 | 1018.7 |
| 20260506140043 | 6 | 0 | 0.0 | 8.0 | 0.00 | 0.00 | 0.00 | 52 | 1018.6 |
| 20260506134536 | 6 | 0 | 0.0 | 1.6 | 0.00 | 0.00 | 0.00 | 53 | 1018.6 |
| 20260506133041 | 5 | 0 | 0.0 | 1.6 | 0.00 | 0.00 | 0.00 | 56 | 1018.5 |
| 20260506131542 | 5 | 0 | 0.0 | 1.6 | 0.00 | 0.00 | 0.00 | 57 | 1018.5 |
| 20260506130044 | 3 | 0 | 0.0 | 1.6 | 0.00 | 0.00 | 0.00 | 60 | 1018.5 |
| 20260506124543 | 3 | 0 | 0.0 | 1.6 | 0.00 | 0.00 | 0.00 | 63 | 1018.3 |
| 20260506123041 | 2 | 0 | 0.0 | 1.6 | 0.00 | 0.00 | 0.00 | 67 | 1018.2 |
| 20260506121536 | 1 | 0 | 0.0 | 1.6 | 0.00 | 0.00 | 0.00 | 69 | 1018.0 |
| 20260506120046 | 0 | 0 | 0.0 | 0.0 | 0.00 | 0.00 | 0.00 | 71 | 1017.9 |
| 20260506114541 | 0 | 0 | 0.0 | 0.0 | 0.00 | 0.00 | 0.00 | 72 | 1017.6 |
| 20260506113042 | 0 | 0 | 0.0 | 0.0 | 0.00 | 0.00 | 0.00 | 72 | 1017.3 |
| 20260506111540 | 0 | 0 | 0.0 | 0.0 | 0.00 | 0.00 | 0.00 | 73 | 1017.3 |
| 20260506110038 | 0 | 0 | 0.0 | 0.0 | 0.00 | 0.00 | 0.00 | 70 | 1017.0 |
| 20260506104548 | 1 | 0 | 0.0 | 0.0 | 0.00 | 0.00 | 0.00 | 68 | 1016.7 |
| 20260506103041 | 1 | 0 | 0.0 | 0.0 | 0.00 | 0.00 | 0.00 | 66 | 1016.5 |
| 20260506101542 | 1 | 0 | 0.0 | 0.0 | 0.00 | 0.00 | 0.00 | 66 | 1016.6 |
| 20260506100042 | 1 | 0 | 0.0 | 0.0 | 0.00 | 0.00 | 0.00 | 67 | 1016.7 |
| 20260506094539 | 1 | 0 | 0.0 | 0.0 | 0.00 | 0.00 | 0.00 | 67 | 1016.8 |
| 20260506093040 | 1 | 0 | 0.0 | 0.0 | 0.00 | 0.00 | 0.00 | 66 | 1016.4 |
| 20260506091544 | 1 | 0 | 0.0 | 0.0 | 0.00 | 0.00 | 0.00 | 66 | 1016.3 |
| 20260506090044 | 1 | 0 | 0.0 | 0.0 | 0.00 | 0.00 | 0.00 | 65 | 1016.3 |
| 20260506084541 | 1 | 0 | 0.0 | 0.0 | 0.00 | 0.00 | 0.00 | 64 | 1016.2 |
| 20260506083042 | 2 | 0 | 0.0 | 1.6 | 0.00 | 0.00 | 0.00 | 63 | 1016.1 |
| 20260506081537 | 2 | 0 | 0.0 | 1.6 | 0.00 | 0.00 | 0.00 | 62 | 1016.2 |
| 20260506073050 | 2 | 0 | 0.0 | 0.0 | 0.00 | 0.00 | 0.00 | 61 | 1015.8 |
| 20260506071541 | 2 | 0 | 0.0 | 0.0 | 0.00 | 0.00 | 0.00 | 61 | 1015.9 |
| 20260506061544 | 3 | 0 | 0.0 | 0.0 | 0.00 | 0.00 | 0.00 | 58 | 1015.8 |
| 20260506044548 | 5 | 0 | 0.0 | 1.6 | 0.00 | 0.00 | 0.00 | 48 | 1015.0 |
| 20260506043046 | 5 | 0 | 0.0 | 1.6 | 0.00 | 0.00 | 0.00 | 48 | 1015.1 |
| 20260506041551 | 6 | 0 | 0.0 | 0.0 | 0.00 | 0.00 | 0.00 | 47 | 1015.2 |
| 20260506040046 | 6 | 0 | 0.0 | 1.6 | 0.00 | 0.00 | 0.00 | 46 | 1015.2 |
| 20260506034549 | 6 | 0 | 0.0 | 1.6 | 0.00 | 0.00 | 0.00 | 45 | 1015.2 |
| 20260506033042 | 6 | 0 | 0.0 | 1.6 | 0.00 | 0.00 | 0.00 | 45 | 1015.1 |
| 20260506031546 | 7 | 0 | 0.0 | 1.6 | 0.00 | 0.00 | 0.00 | 44 | 1015.0 |
| 20260506030047 | 7 | 0 | 0.0 | 1.6 | 0.00 | 0.00 | 0.00 | 43 | 1014.7 |
| 20260506024547 | 7 | 0 | 0.0 | 1.6 | 0.00 | 0.00 | 0.00 | 42 | 1014.4 |